Weather History for Southeast Shoal, ON

Change the Weather History Date:

Tuesday, October 16, 2012

  Actual Average Record
Temperature  
Mean Temperature 52 °F -  
Max Temperature 57 °F - - ()
Min Temperature 46 °F - - ()
Degree Days  
Heating Degree Days 14    
Growing Degree Days 2 (Base 50)    
Moisture  
Dew Point 39 °F    
Average Humidity 64    
Maximum Humidity 75    
Minimum Humidity 52    
Precipitation  
Precipitation 0.00 in - - ()
Sea Level Pressure  
Sea Level Pressure 29.93 in    
Wind  
Wind Speed - ()    
Max Wind Speed -    
Max Gust Speed -    
T = Trace of Precipitation, MM = Missing Value Source: Averaged Metar Reports

Daily Weather History Graph

Daily Weather History Graph

Search for Another Location

Airport:

Trip Planner

Search our weather history database for the weather conditions in past years. The results will help you decide how hot, cold, wet, or windy it might be!

Date:

Astronomy

Oct. 16, 2012 Rise Set
Actual Time 7:43 AM EDT 6:46 PM EDT
Civil Twilight 7:15 AM EDT 7:14 PM EDT
Nautical Twilight 6:43 AM EDT 7:46 PM EDT
Astronomical Twilight 6:11 AM EDT 8:18 PM EDT
Moon 9:07 AM EDT (10/16) 7:27 PM EDT (10/16)
Length of Visible Light 11h 58m
Length of Day
11h 02m
New Moon, 2% of the Moon is Illuminated
Oct 16
New Moon
Oct 21
First Quarter
Oct 29
Full
Nov 6
Last Quarter
Nov 13
New

Hourly Weather History & Observations

Time (EDT) Temp. Dew Point Humidity Pressure Visibility Wind Dir Wind Speed Gust Speed Precip Events Conditions
12:00 AM 49.5 °F 38.7 °F 66% 29.94 in - North - - N/A   Unknown
1:00 AM 49.3 °F 38.3 °F 66% 29.95 in - North - - N/A   Unknown
2:00 AM 49 °F 40 °F 61% 29.96 in - Calm Calm - -  
2:00 AM 49.1 °F 39.6 °F 70% 29.96 in - North - - N/A   Unknown
3:00 AM 48.7 °F 36.1 °F 62% 29.96 in - North - - N/A   Unknown
4:00 AM 48.0 °F 36.3 °F 64% 29.96 in - North - - N/A   Unknown
5:00 AM 47.3 °F 34.0 °F 60% 29.96 in - North - - N/A   Unknown
6:00 AM 47.7 °F 36.1 °F 64% 29.97 in - North - - N/A   Unknown
7:00 AM 47.5 °F 35.1 °F 62% 29.99 in - North - - N/A   Unknown
8:00 AM 47 °F 35 °F 52% 29.99 in - Calm Calm - -  
8:00 AM 46.9 °F 34.9 °F 63% 29.99 in - North - - N/A   Unknown
9:00 AM 47.3 °F 35.4 °F 63% 30.01 in - North - - N/A   Unknown
10:00 AM 49.1 °F 36.9 °F 63% 30.02 in - North - - N/A   Unknown
11:00 AM 49.5 °F 38.1 °F 65% 30.01 in - North - - N/A   Unknown
12:00 PM 50.5 °F 38.5 °F 63% 30.00 in - North - - N/A   Unknown
1:00 PM 50.0 °F 38.5 °F 65% 29.99 in - North - - N/A   Unknown
2:00 PM 49 °F 38 °F 55% 29.95 in - Calm Calm - -  
2:00 PM 48.6 °F 37.8 °F 66% 29.95 in - North - - N/A   Unknown
3:00 PM 49.5 °F 38.3 °F 65% 29.93 in - North - - N/A   Unknown
4:00 PM 50.4 °F 38.7 °F 64% 29.90 in - North - - N/A   Unknown
5:00 PM 51.4 °F 39.4 °F 63% 29.89 in - North - - N/A   Unknown
6:00 PM 52.5 °F 41.7 °F 67% 29.86 in - North - - N/A   Unknown
7:00 PM 53.6 °F 44.2 °F 71% 29.85 in - North - - N/A   Unknown
8:00 PM 55 °F 46 °F 64% 29.83 in - Calm Calm - -  
8:00 PM 55.2 °F 46.2 °F 72% 29.83 in - North - - N/A   Unknown
9:00 PM 55.6 °F 47.7 °F 75% 29.82 in - North - - N/A   Unknown
10:00 PM 57.2 °F 45.5 °F 65% 29.82 in - North - - N/A   Unknown
11:00 PM 56.7 °F 44.2 °F 63% 29.81 in - North - - N/A   Unknown